Weather Roundup
Issued by NWS

Home | Current Version | Previous Version | Text Only | Print | Product List | Glossary On
Versions: 1 2 3 4 5 6 7 8 9 10 11 12 13 14 15 16 17 18 19 20 21 22 23 24 25 26 27 28 29 30 31 32 33 34 35 36 37 38 39 40 41 42 43 44 45 46 47 48 49 50
000
NZUS93 KARX 171959
HRRWXR

CURRENT HOURLY OBSERVATIONS ACROSS
MUCH OF THE UPPER MISSISSIPPI VALLEY
NATIONAL WEATHER SERVICE LA CROSSE WI
200 PM CST SUN DEC 17 2017


...SOUTHEAST MINNESOTA...


CITY           SKY/WX    TMP DP  RH WIND       PRES   REMARKS
ROCHESTER      LGT SNOW  28  27  96 CALM      29.99F FOG
ROCHESTER/MAYO CLOUDY    29  29 100 CALM      30.00F
WINONA         LGT SNOW  32  28  86 CALM      30.04S
AUSTIN         LGT SNOW  28  27  93 CALM      29.98F
ALBERT LEA     NOT AVBL
DODGE CENTER   CLOUDY    27  27 100 CALM      29.98F FOG
PRESTON        CLOUDY    28  28  96 CALM      29.99F FOG
OWATONNA       CLOUDY    27  27 100 CALM      29.99F FOG
FARIBAULT      CLOUDY    27  25  93 CALM      30.00F FOG
$$

...ELSEWHERE IN MINNESOTA...


CITY           SKY/WX    TMP DP  RH WIND       PRES   REMARKS
MINNEAPOLIS    CLOUDY    28  25  88 VRB3      30.01F FOG
INTNL FALLS    MOSUNNY   29  24  82 SW5       29.88F WCI  24
DULUTH         CLOUDY    23  21  92 W7        29.95F WCI  15
RED WING       CLOUDY    28  25  86 CALM      30.01F FOG
REDWOOD FALLS  CLOUDY    30  24  78 CALM      30.00F
MANKATO        CLOUDY    26  23  88 CALM      30.01F FOG
WORTHINGTON    CLOUDY    30  29  96 N7        29.97F WCI  23
FAIRMONT       PTSUNNY   31  24  75 NE5       29.99F WCI  26
$$

...SOUTHWEST WISCONSIN...


CITY           SKY/WX    TMP DP  RH WIND       PRES   REMARKS
LA CROSSE      CLOUDY    32  28  85 CALM      30.02F
PRAIRIE DU CHI CLOUDY    35  29  79 CALM      30.01S HAZE
BOSCOBEL       CLOUDY    35  29  78 CALM      30.01F
LONE ROCK      NOT AVBL
PLATTEVILLE    CLOUDY    35  32  88 E6        29.99S WCI  30
FORT MC COY    CLOUDY    30  28  92 CALM      30.02F FOG
MAUSTON-NEW LI CLOUDY    32  29  91 SE5       30.00S FOG     WCI  27
VIROQUA        CLOUDY    30  30 100 CALM      29.99S
WIS DELLS      CLOUDY    32  29  88 CALM      29.99F FOG
$$

...ELSEWHERE IN WISCONSIN...


CITY           SKY/WX    TMP DP  RH WIND       PRES   REMARKS
MILWAUKEE      CLOUDY    35  32  88 E7        30.00F FOG     WCI  29
MADISON        CLOUDY    34  30  85 E3        30.01F FOG
GREEN BAY      CLOUDY    32  26  78 E5        30.02F WCI  27
EAU CLAIRE     NOT AVBL
BLACK RVR FLS  MIX PCPN  32  26  80 S3        30.01S
MEDFORD        CLOUDY    26  24  92 CALM      29.98F FOG
WAUSAU         CLOUDY    27  25  92 E3        29.98F FOG
WIS RAPIDS     CLOUDY    29  26  89 E5        30.02F FOG     WCI  24
MARSHFIELD     CLOUDY    27  26  96 S3        29.98F FOG
RICE LAKE      LGT SNOW  28  27  96 CALM      30.01F
$$

...NORTHEAST IOWA...


CITY           SKY/WX    TMP DP  RH WIND       PRES   REMARKS
WATERLOO       CLOUDY    34  29  82 E5        29.95F HAZE    WCI  30
DUBUQUE        CLOUDY    34  31  88 CALM      29.98S FOG
DECORAH        CLOUDY    32  30  93 CALM      29.97F FOG
MASON CITY     CLOUDY    29  28  96 CALM      29.98F FOG
CHARLES CITY   CLOUDY    32  32 100 SE6       29.97F FOG     WCI  26
OELWEIN        CLOUDY    36  34  93 E3        29.96F FOG
$$

...ELSEWHERE IN IOWA...


CITY           SKY/WX    TMP DP  RH WIND       PRES   REMARKS
DES MOINES     PTSUNNY   38  33  82 CALM      29.95F
IOWA CITY      CLOUDY    40  34  79 CALM      29.98F
FORT DODGE     CLOUDY    33  28  81 NE3       29.95F
MARSHALLTOWN   CLOUDY    39  30  70 NE3       29.93F
CEDAR RAPIDS   CLOUDY    38  31  76 NW3       29.94F HAZE
$$

...NORTHERN ILLINOIS...


CITY           SKY/WX    TMP DP  RH WIND       PRES   REMARKS
CHICAGO-OHARE  CLOUDY    40  34  79 CALM      29.97F HAZE
CHICAGO-MIDWAY CLOUDY    45  32  60 SW5       29.98F
MOLINE         PTSUNNY   44  31  60 W5        29.96F
ROCKFORD       CLOUDY    39  33  79 E3        29.99F HAZE
PEORIA         CLOUDY    49  41  74 SW12      29.99S
$$

NOTE: "FAIR" INDICATES FEW OR NO CLOUDS BELOW 12,000 FEET WITH NO
SIGNIFICANT WEATHER AND/OR OBSTRUCTIONS TO VISIBILITY. WIND
SPEEDS ARE IN MILES-PER-HOUR.




USA.gov is the U.S. government's official web portal to all federal, state and local government web resources and services.